DW2270 Weather Reports


time (UTC)temp
C
wind
direction
speed
KPH
gust
KPH
rain 1hr
cm
rain 24hr
cm
rain mn
cm
humidity
%
barometer
mb
20260509223340 32 92 0.0 4.8 0.00 0.03 0.00 59 1007.0
20260509222317 32 187 0.0 1.6 0.00 0.03 0.00 58 1006.8
20260509221250 32 187 0.0 0.0 0.00 0.03 0.00 59 1006.7
20260509220250 32 187 0.0 1.6 0.00 0.03 0.00 59 1006.8
20260509215242 32 185 0.0 4.8 0.00 0.03 0.00 59 1006.8
20260509214229 33 182 0.0 4.8 0.00 0.03 0.00 59 1006.9
20260509213251 33 72 0.0 3.2 0.00 0.03 0.00 57 1006.8
20260509212226 33 92 0.0 0.0 0.00 0.03 0.00 56 1006.9
20260509211227 33 89 0.0 4.8 0.00 0.03 0.00 59 1006.9
20260509210244 33 89 0.0 3.2 0.00 0.03 0.00 58 1007.1
20260509204151 33 163 0.0 4.8 0.00 0.03 0.00 58 1007.3
20260509202020 32 166 1.6 8.0 0.00 0.03 0.00 59 1007.6
20260509201021 33 93 0.0 8.0 0.00 0.03 0.00 60 1007.6
20260509200001 32 96 0.0 8.0 0.00 0.03 0.00 60 1007.8
20260509193809 32 79 0.0 1.6 0.00 0.03 0.00 60 1008.1
20260509192744 32 79 0.0 1.6 0.00 0.03 0.00 61 1008.1
20260509191750 31 98 0.0 3.2 0.00 0.03 0.00 62 1008.2
20260509190754 31 321 0.0 3.2 0.00 0.03 0.00 62 1008.5
20260509185807 31 345 0.0 4.8 0.00 0.03 0.00 63 1008.6
20260509184818 31 117 0.0 8.0 0.00 0.03 0.00 63 1008.8
20260509183833 30 89 1.6 8.0 0.00 0.03 0.00 62 1008.9
20260509182800 30 138 0.0 6.4 0.00 0.03 0.00 61 1008.9
20260509181803 30 140 0.0 6.4 0.00 0.03 0.00 62 1009.2
20260509180757 30 95 0.0 3.2 0.00 0.03 0.00 60 1009.4
20260509175805 30 78 0.0 0.0 0.00 0.03 0.00 59 1009.5
20260509174754 29 279 0.0 1.6 0.00 0.03 0.00 58 1009.7
20260509173738 29 279 0.0 1.6 0.00 0.03 0.00 55 1009.7
20260509172724 29 324 0.0 1.6 0.00 0.03 0.00 54 1009.7
20260509171733 29 324 0.0 4.8 0.00 0.03 0.00 53 1009.6
20260509165619 28 331 0.0 0.0 0.00 0.03 0.00 26 1009.6
20260509164623 27 331 0.0 3.2 0.00 0.03 0.00 6 1009.7
20260509162458 26 90 0.0 3.2 0.00 0.03 0.00 1 1009.5
20260509161512 25 102 0.0 4.8 0.00 0.03 0.00 1 1009.7
20260509160509 25 93 0.0 3.2 0.00 0.03 0.00 1 1009.8
20260509155529 25 93 0.0 3.2 0.00 0.03 0.00 1 1010.1
20260509154551 25 93 0.0 3.2 0.00 0.03 0.00 1 1010.1
20260509153522 25 94 0.0 3.2 0.00 0.03 0.00 1 1010.1
20260509152525 25 94 0.0 1.6 0.00 0.03 0.00 1 1010.1
20260509151542 25 94 0.0 0.0 0.00 0.03 0.00 1 1010.1
20260509150510 25 94 0.0 0.0 0.00 0.03 0.00 1 1010.1
20260509145442 24 94 0.0 0.0 0.00 0.03 0.00 1 1009.9
20260509144421 24 94 0.0 3.2 0.00 0.03 0.00 1 1009.9
20260509143442 24 94 0.0 0.0 0.00 0.03 0.00 1 1009.7
20260509142413 24 94 0.0 0.0 0.00 0.03 0.00 1 1009.6
20260509141408 24 94 0.0 0.0 0.00 0.03 0.00 1 1009.3
20260509135248 24 94 0.0 0.0 0.00 0.03 0.00 1 1009.5
20260509134243 23 94 0.0 0.0 0.00 0.03 0.00 1 1009.7
20260509133305 23 94 0.0 0.0 0.00 0.03 0.00 1 1009.9
20260509131118 23 180 0.0 0.0 0.00 0.03 0.00 1 1010.0
20260509130141 23 180 0.0 0.0 0.00 0.03 0.00 1 1009.8
20260509124035 23 131 0.0 0.0 0.00 0.03 0.00 1 1009.8
20260509123013 23 131 0.0 0.0 0.00 0.03 0.00 1 1009.9
20260509122030 23 131 0.0 0.0 0.00 0.03 0.00 1 1009.7
20260509115918 23 131 0.0 1.6 0.00 0.03 0.00 1 1009.5
20260509114934 23 131 0.0 0.0 0.00 0.03 0.00 1 1009.3
20260509113944 23 131 0.0 0.0 0.00 0.03 0.00 1 1009.1
20260509112912 23 131 0.0 0.0 0.00 0.03 0.00 1 1009.2
20260509111844 23 131 0.0 0.0 0.00 0.03 0.00 1 1009.2
20260509110901 23 131 0.0 0.0 0.00 0.03 0.00 1 1009.1
20260509105914 23 131 0.0 0.0 0.00 0.03 0.00 1 1009.4
20260509104919 23 131 0.0 0.0 0.00 0.03 0.00 1 1009.4
20260509103943 23 131 0.0 0.0 0.00 0.03 0.00 1 1009.6
20260509101833 23 131 0.0 0.0 0.00 0.03 0.00 1 1009.3
20260509100818 23 131 0.0 0.0 0.00 0.03 0.00 1 1009.0
20260509095755 23 131 0.0 0.0 0.00 0.03 0.00 1 1008.6
20260509093612 23 131 0.0 0.0 0.00 0.03 0.00 1 1008.8
20260509092541 23 131 0.0 0.0 0.00 0.03 0.00 1 1009.1
20260509091603 23 131 0.0 0.0 0.00 0.03 0.00 1 1009.0
20260509090539 23 131 0.0 0.0 0.00 0.03 0.00 1 1009.1
20260509085505 23 131 0.0 0.0 0.00 0.03 0.00 1 1009.3
20260509083332 23 131 0.0 0.0 0.00 0.03 0.00 1 1009.3
20260509082332 23 131 0.0 0.0 0.00 0.03 0.00 1 1009.4
20260509081357 23 131 0.0 0.0 0.00 0.03 0.00 1 1009.4
20260509080339 23 131 0.0 0.0 0.00 0.03 0.00 1 1009.1
20260509075309 23 131 0.0 0.0 0.00 0.03 0.00 1 1009.3
20260509074321 23 131 0.0 0.0 0.00 0.03 0.00 1 1009.1
20260509073303 23 131 0.0 0.0 0.00 0.03 0.00 1 1009.0
20260509072312 23 131 0.0 0.0 0.00 0.03 0.00 1 1009.2
20260509071321 23 131 0.0 0.0 0.00 0.03 0.00 1 1009.2
20260509070318 23 127 0.0 0.0 0.00 0.03 0.00 1 1009.1
20260509065337 23 39 0.0 0.0 0.00 0.03 0.00 1 1009.3
20260509064401 23 147 0.0 0.0 0.00 0.03 0.00 1 1009.2
20260509063336 22 117 0.0 0.0 0.00 0.03 0.00 1 1009.2
20260509062314 22 117 0.0 0.0 0.00 0.03 0.00 1 1009.3
20260509061333 23 117 0.0 0.0 0.00 0.03 0.00 1 1009.6
20260509060353 23 117 0.0 0.0 0.00 0.03 0.00 1 1009.7
20260509055411 22 117 0.0 0.0 0.00 0.03 0.00 1 1009.7
20260509054416 22 117 0.0 1.6 0.00 0.03 0.00 1 1009.8
20260509053426 22 117 0.0 0.0 0.00 0.03 0.00 1 1009.8
20260509052422 22 117 0.0 0.0 0.00 0.03 0.00 1 1009.8
20260509051414 22 119 0.0 4.8 0.00 0.03 0.00 1 1009.8
20260509050356 22 28 0.0 1.6 0.00 0.03 0.00 1 1009.7
20260509045328 22 114 0.0 0.0 0.00 0.03 0.03 1 1009.9
20260509043141 22 127 0.0 3.2 0.00 0.03 0.03 1 1009.7
20260509042158 22 145 0.0 3.2 0.00 0.03 0.03 1 1009.7
20260509041129 22 126 0.0 0.0 0.00 0.03 0.03 1 1009.7
20260509040152 22 91 0.0 0.0 0.00 0.03 0.03 1 1009.8
20260509035127 22 35 0.0 3.2 0.00 0.03 0.03 1 1009.6
20260509032936 22 97 0.0 3.2 0.00 0.03 0.03 1 1009.5
20260509030831 23 53 0.0 3.2 0.00 0.03 0.03 1 1009.4
20260509025758 23 71 0.0 1.6 0.00 0.03 0.03 1 1009.4
20260509023643 23 5 0.0 3.2 0.00 0.03 0.03 1 1009.1
20260509020314 23 102 0.0 0.0 0.00 0.00 0.00 1 1009.0
20260509015306 23 102 0.0 1.6 0.00 0.00 0.00 2 1008.8
20260509013206 23 102 0.0 1.6 0.00 0.00 0.00 6 1009.0
20260509012146 23 102 0.0 0.0 0.00 0.00 0.00 9 1008.7
20260509011114 24 101 0.0 4.8 0.00 0.00 0.00 11 1008.7
20260509005123 24 306 0.0 0.0 0.00 0.00 0.00 14 1008.4
20260509004106 24 151 0.0 6.4 0.00 0.00 0.00 15 1008.3
20260509003039 24 144 0.0 9.7 0.00 0.00 0.00 17 1008.4
20260509002043 25 136 0.0 9.7 0.00 0.00 0.00 19 1008.7
20260509001040 25 192 0.0 3.2 0.00 0.00 0.00 21 1008.7
20260509000032 25 173 0.0 4.8 0.00 0.00 0.00 23 1008.6
20260508233905 25 146 0.0 3.2 0.00 0.00 0.00 25 1008.7
20260508232859 25 284 0.0 1.6 0.00 0.00 0.00 26 1008.7
20260508231913 25 136 0.0 0.0 0.00 0.00 0.00 27 1008.6
20260508225805 25 136 0.0 1.6 0.00 0.00 0.00 32 1008.6
20260508224736 25 136 0.0 4.8 0.00 0.00 0.00 34 1008.7